Wind_Speed
20 21 21 15 17 16 16 14 10 8 7 6 5 0 4 7 10 11 9 10 12 15 13 5 9 6 9 5 6 2 4 2 2 3 2 4 2 3 2 2 2 3 2 12 24
22 23 23 17 15 17 19 12 11 9 6 4 2 3 6 11 11 15 11 12 13 14 11 12 6 8 4 4 4 4 3 3 3 4 3 4 3 2 2 6 2 8 11 18 21
25 26 23 17 20 20 20 11 10 9 7 5 5 6 7 8 5 4 14 15 11 11 6 6 4 4 5 3 5 2 4 4 2 5 8 5 5 4 3 3 5 16 22 23 20
27 29 25 17 22 23 18 9 10 9 7 6 8 9 8 4 2 6 13 14 11 10 6 10 6 5 4 5 4 5 4 3 4 6 4 3 6 4 7 5 11 12 15 16 18
27 29 28 17 24 25 16 9 11 9 8 10 12 11 4 6 0 8 11 11 8 7 15 4 6 3 4 3 2 4 1 5 6 8 6 8 3 4 5 8 10 10 12 14 17
28 29 30 20 22 25 15 8 10 9 9 10 9 6 4 5 2 8 11 9 13 10 11 9 3 2 5 3 4 1 4 5 3 3 3 3 2 2 3 11 10 10 13 15 19
29 30 30 28 20 25 15 6 8 8 8 8 10 11 10 5 2 7 8 8 10 8 4 4 3 3 3 3 1 3 4 1 3 3 3 4 1 2 4 9 11 13 13 13 17
29 31 31 29 20 24 13 4 6 6 6 6 4 4 4 2 3 6 8 5 6 6 5 4 6 6 4 3 5 3 4 1 3 6 2 3 4 2 4 7 11 13 13 13 14
27 29 31 28 21 25 10 6 5 5 6 3 3 4 2 2 2 7 8 3 2 4 5 3 5 4 4 3 4 6 2 2 4 3 4 4 3 3 3 6 10 12 12 12 13
26 28 32 27 20 26 5 5 11 5 4 4 5 4 4 3 5 7 6 4 3 2 4 7 5 4 4 5 1 3 3 3 5 3 3 3 4 3 2 6 7 9 10 11 12
26 28 31 27 18 27 4 3 5 6 12 4 1 4 3 7 2 5 7 2 2 7 4 5 6 2 2 2 3 1 2 4 4 1 2 4 4 6 3 4 6 7 11 11 11
25 27 29 25 11 22 12 8 1 1 4 1 1 3 2 4 3 6 8 4 5 3 2 5 2 1 1 2 2 3 2 4 4 2 3 2 8 5 4 2 2 4 8 12 13
23 26 27 23 6 13 24 8 2 1 4 3 2 2 3 4 2 6 5 1 4 3 3 4 2 0 0 2 5 3 3 3 4 2 1 2 5 3 2 3 3 4 4 7 10
21 24 26 19 2 9 6 11 2 2 4 8 6 4 3 2 3 3 4 1 4 2 1 0 2 1 1 2 3 4 2 3 5 3 3 1 4 3 4 4 1 2 5 7 9
20 23 24 13 4 4 8 6 2 1 4 5 6 4 5 5 4 6 5 4 2 3 3 2 3 3 2 1 4 6 2 3 2 2 2 1 1 2 4 7 7 3 2 4 6
20 20 17 6 4 6 9 2 1 5 2 4 3 6 5 6 8 7 6 8 0 2 3 1 3 2 2 2 2 4 2 3 3 1 1 3 3 4 5 5 4 3 3 2 4
17 16 9 5 3 9 4 1 5 6 2 6 4 5 1 6 6 8 6 7 5 5 7 6 2 3 1 3 1 7 5 3 4 3 4 3 2 7 4 3 4 8 6 3 4
16 10 4 8 9 10 1 4 7 1 2 2 3 3 4 6 4 8 3 5 5 5 2 5 6 3 4 2 2 3 2 2 4 3 5 1 5 4 2 5 6 7 6 5 4
13 4 3 9 13 6 4 6 2 2 2 4 2 5 5 4 3 6 4 2 1 4 3 5 5 3 2 2 2 2 2 1 2 1 1 3 6 1 2 2 4 7 6 4 4
9 3 3 15 9 1 5 4 2 1 0 0 3 2 3 5 6 5 3 1 2 2 2 0 5 1 3 0 2 1 2 2 2 5 5 5 5 5 5 9 9 9 9 6 4
4 3 6 16 3 5 4 1 0 0 1 3 1 1 1 2 1 3 3 2 1 2 2 2 3 5 2 2 3 1 1 1 1 2 2 5 6 4 4 5 13 12 10 10 7
2 2 9 10 4 2 2 0 0 1 2 1 2 1 1 1 2 2 2 2 1 1 2 1 3 4 8 1 1 2 3 4 3 4 3 2 8 0 2 5 7 10 11 11 11
2 2 6 6 3 2 2 1 1 1 2 2 1 1 2 2 2 3 3 3 3 4 3 3 1 4 7 1 1 3 4 3 2 1 7 4 7 2 2 1 4 10 13 13 13
2 3 4 5 1 4 3 2 2 2 1 0 1 1 0 2 2 3 2 1 1 2 1 4 2 6 7 5 2 10 7 5 6 4 6 18 22 18 10 7 8 10 12 12 13
4 0 1 2 3 2 1 1 1 2 1 0 1 3 4 2 3 3 4 3 2 2 3 4 5 6 11 10 10 20 18 12 14 19 9 25 12 21 12 8 10 11 11 12 12
2 3 2 1 1 1 2 1 1 3 2 2 2 1 3 5 7 9 4 4 6 1 4 1 3 4 8 11 8 11 14 14 17 18 16 21 25 14 4 3 4 11 14 14 12
3 2 3 0 1 2 2 2 2 0 2 3 3 2 4 10 8 8 7 7 6 6 5 4 2 2 5 0 6 9 10 6 3 5 5 7 8 0 3 4 2 5 10 12 13
Wind_Direction
22 19 16 11 12 7 359 349 337 322 309 293 284 325 81 97 71 59 40 349 338 346 352 352 36 56 52 57 39 96 65 87 137 143 133 344 111 10 278 52 68 62 340 318 321
21 15 12 14 11 7 1 1 2 1 355 327 246 155 132 129 70 53 5 350 345 347 3 21 15 30 51 24 24 69 92 134 168 138 117 55 84 349 336 9 336 327 326 326 327
24 16 11 19 10 6 2 5 13 13 13 24 122 142 141 160 67 340 359 356 356 355 2 26 50 58 58 28 357 51 125 157 30 116 131 109 58 35 353 9 348 320 323 335 336
22 18 13 20 11 7 4 24 21 25 39 67 111 124 124 140 82 337 352 356 8 13 48 37 32 48 61 52 347 85 50 126 133 131 126 115 130 83 55 314 303 305 315 330 343
19 17 17 14 10 10 8 26 31 47 70 101 117 122 115 48 49 345 354 4 18 36 45 43 50 73 80 64 53 71 56 51 82 94 88 118 84 141 20 330 313 336 345 352 347
15 13 14 9 4 8 13 29 37 64 88 101 115 123 109 81 342 356 2 28 37 46 43 42 97 111 96 70 75 16 62 117 128 111 123 113 79 167 346 337 352 351 0 355 351
12 9 8 7 2 4 12 40 49 73 85 90 100 101 69 164 19 9 18 39 46 54 91 59 101 99 138 112 268 129 89 73 166 179 144 121 307 48 333 346 353 1 3 356 350
9 7 5 4 3 1 6 60 57 75 78 86 83 78 77 13 18 17 26 57 63 63 95 70 84 100 64 122 33 69 57 53 199 159 155 174 271 175 5 4 355 355 359 357 355
4 6 3 2 5 1 11 84 61 87 57 88 63 88 64 354 6 355 7 14 40 61 61 70 74 79 37 69 29 9 242 229 295 178 127 181 227 148 40 21 4 353 350 356 358
0 4 3 3 7 4 58 126 63 76 28 57 61 47 13 312 318 338 350 9 54 38 19 40 47 66 38 50 309 285 314 274 253 207 171 186 219 162 67 50 13 346 337 360 357
357 0 1 1 8 7 119 123 19 356 37 85 147 135 331 330 344 6 351 357 32 50 40 5 66 22 302 181 156 215 230 252 262 247 255 232 237 188 144 60 24 358 344 349 351
352 355 359 358 5 19 56 71 71 308 73 9 303 319 310 348 14 351 6 60 48 54 356 26 78 257 184 149 174 212 258 269 274 202 230 221 258 171 155 125 91 12 350 347 349
349 351 354 353 6 19 49 50 33 18 93 10 18 8 336 3 49 325 25 61 65 52 30 131 197 208 309 341 4 303 216 268 258 297 201 315 274 170 178 146 120 64 3 355 2
346 348 351 354 39 10 49 5 23 41 74 326 351 1 348 10 39 327 18 91 35 70 60 32 313 15 325 259 129 298 216 266 280 333 269 48 298 236 188 198 204 28 15 6 3
342 346 349 9 1 43 332 344 120 61 44 318 325 321 342 69 297 348 12 22 68 356 74 307 357 346 305 265 167 238 295 253 249 222 6 316 205 239 154 224 208 166 57 10 2
339 342 349 3 54 4 344 117 119 47 275 350 349 350 19 13 354 321 23 39 84 84 3 275 280 235 275 334 190 300 304 49 54 84 330 242 165 248 193 209 157 167 152 46 19
343 342 355 25 9 346 354 97 44 94 331 330 336 12 26 340 349 23 20 12 34 21 7 337 313 304 353 345 16 27 27 346 359 2 244 200 193 263 184 180 159 169 162 116 44
348 350 64 33 353 344 68 57 70 239 0 347 355 327 52 7 17 350 32 21 24 50 51 21 335 358 350 58 301 8 70 108 308 303 295 354 244 278 58 99 113 135 147 127 77
356 22 55 354 340 340 77 51 169 201 259 355 352 51 345 9 17 23 26 14 301 31 40 7 285 317 12 2 84 10 22 202 268 260 356 260 290 169 98 161 172 166 171 159 124
353 0 7 347 345 36 71 146 181 219 0 109 75 47 347 324 21 33 349 277 359 78 131 230 300 271 290 81 47 124 164 346 26 325 302 291 284 260 238 223 206 205 195 184 159
355 48 353 347 14 49 93 170 183 121 38 48 152 27 36 320 327 308 290 303 28 26 84 126 133 287 334 196 181 33 318 71 149 168 263 309 266 213 216 202 206 200 191 174 180
29 38 349 353 49 40 84 180 305 26 37 63 97 104 204 296 281 277 274 262 333 89 14 10 163 280 243 237 349 201 226 170 141 265 237 181 268 192 257 266 210 181 173 170 169
71 281 352 0 82 27 321 48 69 43 25 58 114 221 201 236 283 212 243 224 205 178 151 168 273 318 327 38 63 227 214 196 100 81 212 218 262 186 225 179 184 176 178 170 166
75 28 342 47 35 106 31 23 350 29 60 66 182 140 150 281 242 291 289 281 302 226 255 159 189 198 241 256 281 269 238 212 196 232 250 241 271 264 261 228 198 191 185 178 170
29 83 183 358 13 81 95 45 343 323 115 172 268 225 190 256 286 246 234 287 248 242 138 183 232 208 259 261 261 269 271 249 228 246 239 269 259 274 284 258 219 194 161 169 174
112 131 15 105 8 67 7 162 192 304 207 229 204 314 220 225 207 270 242 187 234 163 177 194 262 212 269 253 261 268 264 250 242 250 249 260 270 289 291 307 164 178 171 175 172
116 115 112 352 90 106 222 177 206 142 249 221 195 319 263 247 245 248 231 227 226 187 195 206 232 315 263 68 295 284 258 208 200 203 185 207 238 234 294 323 271 185 178 173 162
Height
845 841 838 834 832 829 826 823 821 819 818 818 818 819 820 821 821 820 821 823 821 817 814 810 810 808 809 815 818 822 839 848 847 845 849 850 846 851 851 849 851 855 855 855 850
845 841 837 833 831 828 825 822 820 818 816 816 817 819 820 820 820 822 826 823 820 817 814 811 812 811 817 821 823 829 843 843 841 844 852 855 852 854 852 853 853 855 855 853 849
845 841 837 833 830 827 823 820 819 817 816 815 816 818 820 820 822 826 825 823 820 817 814 813 813 814 823 825 832 831 841 840 840 843 849 854 859 858 858 856 860 857 847 847 844
846 842 837 833 830 826 822 820 818 817 816 816 817 819 819 821 834 826 825 823 821 818 815 815 815 822 831 832 835 840 839 838 843 846 848 853 859 863 864 865 861 857 853 849 843
847 843 838 834 830 826 822 820 818 817 816 816 817 818 820 826 829 826 825 823 821 819 817 818 822 827 834 835 834 838 841 845 848 849 852 853 858 858 862 861 859 855 852 848 845
848 844 839 834 830 826 822 820 819 818 817 817 817 818 818 832 827 826 824 823 822 821 822 821 825 827 833 837 839 841 844 849 849 851 852 855 860 858 861 861 858 854 849 847 846
848 844 839 835 830 826 823 821 820 819 819 819 819 819 821 831 827 826 825 824 823 822 823 824 824 826 831 837 840 840 844 846 850 851 855 856 858 862 865 862 859 854 852 851 849
849 844 839 834 830 826 823 822 821 821 821 820 820 820 830 829 828 827 825 824 824 823 823 824 825 828 833 838 843 845 849 851 845 848 852 856 850 863 865 864 860 857 854 852 849
851 846 841 835 831 826 822 822 822 822 822 821 821 820 832 829 828 827 826 825 825 824 825 825 826 836 840 846 852 856 851 851 846 847 851 852 849 862 864 864 862 861 857 854 850
852 847 842 837 833 827 822 823 823 823 823 822 822 827 829 832 829 828 827 826 826 826 827 829 837 844 852 852 856 854 854 853 852 846 847 851 851 859 862 862 865 865 860 855 852
852 848 843 838 834 829 824 824 827 828 826 834 834 834 832 831 829 829 827 827 827 831 841 840 847 849 848 849 850 851 855 856 850 844 845 846 849 854 859 861 864 867 863 858 854
852 848 844 839 836 832 826 832 839 840 839 834 834 834 834 833 832 830 829 831 833 842 840 846 847 843 844 846 848 851 852 852 847 845 846 848 844 852 856 860 863 866 864 861 856
853 848 843 839 837 834 834 840 841 841 841 836 836 836 837 836 838 836 832 834 838 841 845 848 843 840 842 844 848 849 850 847 847 843 852 852 843 853 857 859 860 862 864 863 859
853 849 844 839 840 838 840 842 842 843 855 849 841 839 836 835 839 836 834 836 839 843 844 845 842 842 843 844 849 850 846 847 846 845 846 851 837 845 853 856 858 861 861 862 861
852 849 845 841 842 842 845 842 841 843 882 850 845 838 837 841 844 837 837 835 843 845 847 845 845 844 843 841 846 847 845 846 845 848 852 848 847 829 849 848 850 857 860 862 863
851 847 844 844 843 845 842 841 843 860 882 854 849 852 845 847 847 843 842 840 843 845 847 846 847 845 842 843 844 845 844 849 855 854 851 844 846 819 841 833 846 856 860 861 861
849 846 844 844 845 843 841 842 859 873 857 861 861 859 859 860 852 855 855 860 862 861 865 856 846 845 844 845 845 849 852 851 848 848 840 849 849 818 833 839 841 850 858 860 861
847 845 845 845 844 842 841 847 863 863 862 861 862 859 860 865 860 861 858 866 862 866 876 872 861 848 847 847 849 853 856 861 855 853 846 849 836 814 838 845 848 851 856 858 861
846 845 845 843 842 841 844 871 869 865 864 865 862 867 865 864 864 862 866 867 864 865 866 873 861 850 849 849 850 852 857 859 859 865 868 845 831 841 847 852 855 854 855 856 859
846 845 844 843 840 840 852 867 866 863 863 862 865 867 869 870 868 870 867 862 861 861 863 865 873 853 851 851 852 851 856 857 866 854 853 841 840 823 838 842 850 855 854 857 860
846 847 845 842 841 846 866 868 864 863 863 864 867 867 870 870 869 870 866 861 861 861 862 865 875 859 854 852 851 856 859 862 865 867 857 860 829 815 820 828 834 841 849 854 858
848 853 846 842 852 871 869 864 863 863 862 864 866 868 868 869 870 868 866 862 862 862 864 869 881 878 857 851 855 852 852 858 858 863 868 867 837 824 827 828 828 835 842 848 852
856 857 847 844 864 870 867 864 863 863 864 865 867 867 868 868 870 867 864 858 860 861 861 866 877 879 851 853 852 852 853 853 860 862 860 858 823 827 828 827 830 833 836 841 847
857 859 856 857 870 867 868 867 865 865 865 866 866 867 869 869 868 867 864 859 860 860 859 861 872 869 860 849 853 849 849 851 849 860 847 830 811 805 815 820 826 829 833 840 843
862 870 871 870 870 869 868 870 867 865 865 866 867 867 867 868 868 868 865 862 859 859 863 862 865 869 859 861 857 847 843 847 851 833 844 804 822 797 804 809 813 818 830 837 842
863 867 874 876 873 869 871 869 869 866 865 864 866 865 866 868 862 858 860 864 860 863 864 867 859 863 854 848 854 848 836 836 834 831 830 820 815 805 811 811 815 816 822 830 837
861 863 865 874 875 871 871 867 867 867 863 862 864 867 867 864 859 857 857 855 852 856 860 861 862 858 849 853 854 840 816 822 823 827 824 823 805 816 812 814 817 823 824 827 832